Location: Unspecified
(43.3830°N, 0.0000°E)
Time: 09:26:24
(UTC+00:00)

N. Korean satellite - Pass Details

Date: 02 December 2020
Orbit: 453 x 502 km, 97.2° (Epoch: 16 January)

Event Time Altitude Azimuth Distance (km) Brightness Sun altitude
Rises 17:25:59 0° 198° (SSW) 2,456 10.7 -10.9°
Reaches altitude 10° 17:28:22 10° 215° (SW) 1,593 10.1 -11.3°
Maximum altitude 17:31:00 21° 266° (W) 1,100 9.4 -11.7°
Drops below altitude 10° 17:33:40 10° 316° (NW) 1,618 9.5 -12.2°
Sets 17:36:07 0° 334° (NNW) 2,509 10.3 -12.6°
